Falls City, NE

5:50 AM CDT on July 26, 2017 (GMT -0500)
Brenner

Weather History for KFNB - March, 2013

Change the Weather History Date:

Monday, March 11, 2013

  Actual Average Record
Temperature  
Mean Temperature 28 °F -  
Max Temperature 36 °F 55 °F 85 °F (1972)
Min Temperature 21 °F 30 °F 2 °F (1998)
Degree Days  
Heating Degree Days 36    
Moisture  
Dew Point 19 °F    
Average Humidity 72    
Maximum Humidity 85    
Minimum Humidity 50    
Precipitation  
Precipitation 0.00 in - - ()
Sea Level Pressure  
Sea Level Pressure 29.95 in    
Wind  
Wind Speed 14 mph (NW)    
Max Wind Speed 21 mph    
Max Gust Speed 29 mph    
Visibility 10 miles    
Events Snow    
Averages and records for this station are not official NWS values.
T = Trace of Precipitation, MM = Missing Value Source: NWS Daily Summary

Daily Weather History Graph

Daily Weather History Graph

Search for Another Location

Airport or City:

Trip Planner

Search our weather history database for the weather conditions in past years. The results will help you decide how hot, cold, wet, or windy it might be!

Date:

Astronomy

Mar. 11, 2013 Rise Set
Actual Time 7:39 AM CDT 7:25 PM CDT
Civil Twilight 7:12 AM CDT 7:52 PM CDT
Nautical Twilight 6:41 AM CDT 8:23 PM CDT
Astronomical Twilight 6:09 AM CDT 8:55 PM CDT
Moon 7:14 AM CDT (3/11) 7:38 PM CDT (3/11)
Length of Visible Light 12h 39m
Length of Day
11h 45m
Waning Crescent, 0% of the Moon is Illuminated
Mar 11
Waning Crescent
Mar 11
New
Mar 19
First Quarter
Mar 27
Full
Apr 2
Last Quarter

Hourly Weather History & Observations

Time (CDT) Temp. Windchill Dew Point Humidity Pressure Visibility Wind Dir Wind Speed Gust Speed Precip Events Conditions
12:01 AM 24.8 °F 11.1 °F 19.4 °F 80% 29.91 in 10.0 mi NW 18.4 mph 27.6 mph N/A   Overcast
12:09 AM 24.8 °F 10.3 °F 19.4 °F 80% 29.90 in 10.0 mi NW 20.7 mph 27.6 mph N/A   Overcast
12:53 AM 25.0 °F 12.2 °F 21.0 °F 85% 29.94 in 10.0 mi NW 16.1 mph 24.2 mph N/A   Overcast
1:53 AM 25.0 °F 10.9 °F 19.9 °F 81% 29.93 in 10.0 mi NW 19.6 mph 28.8 mph N/A   Overcast
2:50 AM 24.8 °F 13.4 °F 19.4 °F 80% 29.89 in 10.0 mi NW 12.7 mph 23.0 mph N/A   Overcast
2:53 AM 25.0 °F 14.2 °F 19.9 °F 81% 29.93 in 10.0 mi NW 11.5 mph 21.9 mph N/A   Overcast
3:53 AM 24.1 °F 12.0 °F 19.9 °F 84% 29.92 in 10.0 mi NW 13.8 mph - N/A   Overcast
4:53 AM 24.1 °F 10.1 °F 19.0 °F 81% 29.90 in 10.0 mi NW 18.4 mph 25.3 mph N/A   Overcast
5:53 AM 23.0 °F 9.6 °F 18.0 °F 81% 29.91 in 5.0 mi NW 16.1 mph 25.3 mph 0.00 in Snow Light Snow
6:04 AM 23.0 °F 10.6 °F 17.6 °F 80% 29.88 in 9.0 mi WNW 13.8 mph - 0.00 in   Overcast
6:53 AM 21.9 °F 9.8 °F 16.0 °F 78% 29.94 in 10.0 mi NW 12.7 mph - 0.00 in   Overcast
7:53 AM 21.9 °F 10.4 °F 16.0 °F 78% 29.95 in 10.0 mi NW 11.5 mph 20.7 mph N/A   Overcast
8:53 AM 21.9 °F 9.8 °F 16.0 °F 78% 29.97 in 10.0 mi NW 12.7 mph 21.9 mph N/A   Overcast
9:53 AM 23.0 °F 10.1 °F 17.1 °F 78% 29.98 in 10.0 mi WNW 15.0 mph 20.7 mph N/A   Overcast
10:53 AM 23.0 °F 9.6 °F 17.1 °F 78% 29.97 in 10.0 mi WNW 16.1 mph - N/A   Overcast
11:53 AM 25.0 °F 12.6 °F 19.0 °F 78% 29.97 in 10.0 mi WNW 15.0 mph - N/A   Overcast
12:53 PM 26.6 °F 15.7 °F 17.6 °F 69% 29.94 in 10.0 mi WNW 12.7 mph - N/A   Overcast
1:53 PM 28.0 °F 16.5 °F 19.9 °F 72% 29.97 in 10.0 mi WNW 15.0 mph 21.9 mph N/A   Mostly Cloudy
2:31 PM 28.4 °F 19.7 °F 17.6 °F 64% 29.92 in 10.0 mi NW 9.2 mph - N/A   Scattered Clouds
2:53 PM 30.9 °F 21.7 °F 19.9 °F 64% 29.94 in 10.0 mi NW 11.5 mph - N/A   Partly Cloudy
3:53 PM 33.1 °F 25.5 °F 21.0 °F 61% 29.94 in 10.0 mi WNW 9.2 mph - N/A   Partly Cloudy
4:53 PM 35.1 °F 26.4 °F 19.9 °F 54% 29.95 in 10.0 mi WNW 12.7 mph 17.3 mph N/A   Clear
5:53 PM 36.0 °F 29.6 °F 19.0 °F 50% 29.94 in 10.0 mi WNW 8.1 mph - N/A   Clear
6:53 PM 34.0 °F 26.0 °F 21.0 °F 59% 29.98 in 10.0 mi West 10.4 mph - N/A   Scattered Clouds
7:53 PM 32.0 °F 28.7 °F 19.9 °F 61% 29.98 in 10.0 mi WNW 3.5 mph - N/A   Clear
8:53 PM 30.9 °F - 19.0 °F 61% 29.99 in 10.0 mi Calm Calm - N/A   Clear
9:53 PM 30.9 °F - 19.0 °F 61% 30.00 in 10.0 mi Calm Calm - N/A   Clear
10:53 PM 28.0 °F - 19.9 °F 72% 30.02 in 10.0 mi Calm Calm - N/A   Clear
11:53 PM 28.0 °F 24.2 °F 19.9 °F 72% 30.04 in 10.0 mi SW 3.5 mph - N/A   Clear